TimeCST,TemperatureF,Dew PointF,Humidity,Sea Level PressureIn,VisibilityMPH,Wind Direction,Wind SpeedMPH,Gust SpeedMPH,PrecipitationIn,Events,Conditions,WindDirDegrees,DateUTC
12:54 AM,21.9,15.1,75,30.21,10.0,North,11.5,-,N/A,,Overcast,360,2013-03-01 06:54:00
1:54 AM,21.9,14.0,72,30.22,10.0,North,12.7,-,N/A,,Overcast,10,2013-03-01 07:54:00
2:54 AM,21.9,14.0,72,30.22,10.0,North,10.4,18.4,N/A,,Overcast,10,2013-03-01 08:54:00
4:54 AM,19.9,12.0,71,30.25,10.0,North,13.8,-,N/A,,Overcast,360,2013-03-01 10:54:00
5:54 AM,19.9,12.0,71,30.26,10.0,North,12.7,20.7,N/A,,Overcast,10,2013-03-01 11:54:00
7:54 AM,19.9,12.0,71,30.31,8.0,North,12.7,-,0.00,Snow,Light Snow,10,2013-03-01 13:54:00
9:54 AM,21.9,12.9,68,30.32,10.0,NNE,16.1,21.9,N/A,,Overcast,20,2013-03-01 15:54:00
10:54 AM,23.0,12.9,65,30.32,10.0,North,12.7,20.7,N/A,,Overcast,10,2013-03-01 16:54:00
11:54 AM,24.1,12.9,62,30.31,10.0,North,15.0,-,N/A,,Mostly Cloudy,360,2013-03-01 17:54:00
12:08 PM,24.8,12.2,59,30.24,10.0,North,12.7,-,N/A,,Scattered Clouds,360,2013-03-01 18:08:00
12:54 PM,26.1,10.9,53,30.30,10.0,NNE,10.4,-,N/A,,Partly Cloudy,20,2013-03-01 18:54:00
1:54 PM,26.1,8.1,47,30.29,10.0,NNE,12.7,-,N/A,,Clear,20,2013-03-01 19:54:00
2:54 PM,26.1,9.0,49,30.29,10.0,NNW,16.1,-,N/A,,Clear,340,2013-03-01 20:54:00
3:54 PM,25.0,6.1,45,30.29,10.0,NNE,10.4,-,N/A,,Clear,20,2013-03-01 21:54:00
4:54 PM,23.0,9.0,55,30.30,10.0,North,17.3,-,N/A,,Clear,350,2013-03-01 22:54:00
5:54 PM,19.9,8.1,60,30.32,10.0,North,11.5,-,N/A,,Clear,360,2013-03-01 23:54:00
6:54 PM,17.1,8.1,68,30.33,10.0,North,16.1,-,N/A,,Clear,10,2013-03-02 00:54:00
8:54 PM,15.1,7.0,70,30.32,10.0,NNW,8.1,-,N/A,,Clear,330,2013-03-02 02:54:00
9:54 PM,12.9,7.0,77,30.32,10.0,NNW,9.2,-,N/A,,Clear,330,2013-03-02 03:54:00
10:54 PM,10.9,6.1,81,30.30,10.0,NW,5.8,-,N/A,,Clear,320,2013-03-02 04:54:00
11:54 PM,8.1,3.9,83,30.29,10.0,NW,3.5,-,N/A,,Clear,310,2013-03-02 05:54:00